Tracking 19170 objects as of 23-May-2018
HD Live streaming from Space Station
objects crossing your sky now

CRRES

Track CRRES now!
CRRES is classified as:


NORAD ID: 20712
Int'l Code: 1990-065A
Perigee: 314.6 km
Apogee: 33,289.4 km
Inclination: 17.7 °
Period: 585.1 minutes
Semi major axis: 23172 km
RCS: 6.1782 m2 (large)
Launch date: July 25, 1990
Source: United States (US)
Launch site: AIR FORCE EASTERN TEST RANGE (AFETR)
aabbcc
Your satellite tracking list
Your tracking list is empty




NASA's NSSDC Master Catalog

Two Line Element Set (TLE):
1 20712U 90065A   18142.08113098 -.00000014 +00000-0 +14500-3 0  9997
2 20712 017.6521 129.6478 7114922 101.7047 339.3565 02.46110658236715
Source of the keplerian elements: AFSPC